H1 CPF  1  ESA 2011  2 18 14  5491 giovea               
H2  0505101 7001    28922 2011  2 17 22 45  0 2011  2 23  0  0  0   900 1 1  0 0 0
H9
10 0 55611  17100.000000  0     -17225599.553       5632737.985     -23565587.711
10 0 55611  18000.000000  0     -16847362.868       3526138.659     -24235817.616
10 0 55611  18900.000000  0     -16615932.076       1351306.522     -24608459.859
10 0 55611  19800.000000  0     -16539627.932       -854545.312     -24678864.052
10 0 55611  20700.000000  0     -16620575.637      -3053255.940     -24446086.026
10 0 55611  21600.000000  0     -16854636.222      -5206839.370     -23912903.222
10 0 55611  22500.000000  0     -17231535.256      -7278602.746     -23085784.709
10 0 55611  23400.000000  0     -17735185.131      -9234225.501     -21974815.994
10 0 55611  24300.000000  0     -18344191.210     -11042766.025     -20593579.306
10 0 55611  25200.000000  0     -19032526.341     -12677564.570     -18958990.599
10 0 55611  26100.000000  0     -19770352.990     -14117014.272     -17091095.044
10 0 55611  27000.000000  0     -20524967.556     -15345176.183     -15012823.299
10 0 55611  27900.000000  0     -21261837.586     -16352219.034     -12749711.404
10 0 55611  28800.000000  0     -21945699.555     -17134669.846     -10329587.592
10 0 55611  29700.000000  0     -22541682.962     -17695467.427      -7782229.828
10 0 55611  30600.000000  0     -23016425.503     -18043816.929      -5138998.268
10 0 55611  31500.000000  0     -23339144.357     -18194849.901      -2432447.248
10 0 55611  32400.000000  0     -23482629.870     -18169100.433        304078.309
10 0 55611  33300.000000  0     -23424130.333     -17991813.731       3036856.891
10 0 55611  34200.000000  0     -23146099.956     -17692108.849       5732209.480
10 0 55611  35100.000000  0     -22636786.523     -17302021.985       8356918.326
10 0 55611  36000.000000  0     -21890640.007     -16855460.244      10878639.924
10 0 55611  36900.000000  0     -20908529.359     -16387098.976      13266306.900
10 0 55611  37800.000000  0     -19697760.606     -15931257.325      15490513.590
10 0 55611  38700.000000  0     -18271895.609     -15520787.332      17523880.366
10 0 55611  39600.000000  0     -16650377.387     -15186011.618      19341392.117
10 0 55611  40500.000000  0     -14857973.680     -14953742.831      20920706.611
10 0 55611  41400.000000  0     -12924056.250     -14846415.611      22242428.928
10 0 55611  42300.000000  0     -10881738.565     -14881358.132      23290348.644
10 0 55611  43200.000000  0      -8766898.826     -15070225.888      24051636.941
10 0 55611  44100.000000  0      -6617118.878     -15418615.241      24517001.384
10 0 55611  45000.000000  0      -4470572.057     -15925868.592      24680796.635
10 0 55611  45900.000000  0      -2364894.545     -16585077.022      24541089.961
10 0 55611  46800.000000  0       -336075.227     -17383280.095      24099680.936
10 0 55611  47700.000000  0       1582601.600     -18301856.377      23362075.317
10 0 55611  48600.000000  0       3361528.045     -19317092.328      22337413.593
10 0 55611  49500.000000  0       4975629.073     -20400911.688      21038355.264
10 0 55611  50400.000000  0       6405077.287     -21521742.584      19480920.403
10 0 55611  51300.000000  0       7635844.203     -22645495.314      17684290.555
10 0 55611  52200.000000  0       8660071.241     -23736620.412      15670571.467
10 0 55611  53100.000000  0       9476249.243     -24759214.160      13464520.627
10 0 55611  54000.000000  0      10089201.264     -25678137.246      11093242.936
10 0 55611  54900.000000  0      10509869.437     -26460111.954       8585858.228
10 0 55611  55800.000000  0      10754912.768     -27074763.916       5973144.695
10 0 55611  56700.000000  0      10846128.516     -27495576.215       3287162.503
10 0 55611  57600.000000  0      10809715.274     -27700726.348        560862.163
10 0 55611  58500.000000  0      10675400.702     -27673780.196      -2172317.640
10 0 55611  59400.000000  0      10475461.046     -27404221.543      -4878857.914
10 0 55611  60300.000000  0      10243662.882     -26887800.809      -7525568.030
10 0 55611  61200.000000  0      10014159.908     -26126692.191     -10079990.293
10 0 55611  62100.000000  0       9820379.012     -25129454.360     -12510795.566
10 0 55611  63000.000000  0       9693930.113     -23910795.875     -14788165.213
10 0 55611  63900.000000  0       9663573.586     -22491152.520     -16884154.801
10 0 55611  64800.000000  0       9754277.275     -20896089.542     -18773035.216
10 0 55611  65700.000000  0       9986392.360     -19155547.167     -20431607.119
10 0 55611  66600.000000  0      10374973.686     -17302952.584     -21839484.979
10 0 55611  67500.000000  0      10929265.714     -15374225.727     -22979347.273
10 0 55611  68400.000000  0      11652370.199     -13406709.445     -23837149.843
10 0 55611  69300.000000  0      12541106.076     -11438057.009     -24402299.788
10 0 55611  70200.000000  0      13586066.150      -9505111.235     -24667787.747
10 0 55611  71100.000000  0      14771869.112      -7642809.825     -24630276.880
10 0 55611  72000.000000  0      16077599.386      -5883150.738     -24290147.336
10 0 55611  72900.000000  0      17477421.469      -4254249.614     -23651495.516
10 0 55611  73800.000000  0      18941350.024      -2779518.501     -22722087.956
10 0 55611  74700.000000  0      20436152.122      -1476991.413     -21513270.169
10 0 55611  75600.000000  0      21926353.833       -358817.776     -20039831.336
10 0 55611  76500.000000  0      23375320.095        569060.352     -18319826.285
10 0 55611  77400.000000  0      24746374.387       1307037.089     -16374356.698
10 0 55611  78300.000000  0      26003923.411       1861773.381     -14227314.066
10 0 55611  79200.000000  0      27114551.724       2245931.478     -11905087.371
10 0 55611  80100.000000  0      28048052.105       2477721.405      -9436239.012
10 0 55611  81000.000000  0      28778359.373       2580273.455      -6851152.900
10 0 55611  81900.000000  0      29284358.311       2580856.288      -4181659.087
10 0 55611  82800.000000  0      29550540.254       2509965.073      -1460639.638
10 0 55611  83700.000000  0      29567487.631       2400308.281       1278379.246
10 0 55611  84600.000000  0      29332171.081       2285724.944       4001643.631
10 0 55611  85500.000000  0      28848049.803       2200066.491       6675591.420
10 0 55612      0.000000  0      28124971.920       2176078.325       9267269.656
10 0 55612    900.000000  0      27178877.790       2244316.370      11744744.129
10 0 55612   1800.000000  0      26031315.779       2432132.738      14077496.026
10 0 55612   2700.000000  0      24708785.526       2762762.419      16236800.470
10 0 55612   3600.000000  0      23241929.526       3254539.737      18196082.158
10 0 55612   4500.000000  0      21664598.421       3920269.118      19931243.583
10 0 55612   5400.000000  0      20012819.286       4766769.871      21420961.740
10 0 55612   6300.000000  0      18323699.255       5794609.174      22646949.664
10 0 55612   7200.000000  0      16634298.788       6998031.502      23594179.661
10 0 55612   8100.000000  0      14980509.743       8365086.583      24251065.600
10 0 55612   9000.000000  0      13395973.157       9877951.745      24609602.190
10 0 55612   9900.000000  0      11911070.342      11513438.457      24665459.718
10 0 55612  10800.000000  0      10552018.509      13243667.154      24418033.308
10 0 55612  11700.000000  0       9340098.807      15036889.234      23870446.293
10 0 55612  12600.000000  0       8291040.497      16858430.595      23029507.878
10 0 55612  13500.000000  0       7414580.055      18671727.351      21905625.784
10 0 55612  14400.000000  0       6714208.567      20439421.573      20512675.129
10 0 55612  15300.000000  0       6187114.917      22124483.098      18867825.246
10 0 55612  16200.000000  0       5824326.188      23691322.695      16991326.700
10 0 55612  17100.000000  0       5611040.624      25106862.189      14906261.129
10 0 55612  18000.000000  0       5527142.549      26341528.514      12638257.052
10 0 55612  18900.000000  0       5547883.032      27370141.053      10215175.080
10 0 55612  19800.000000  0       5644705.023      28172664.936       7666766.405
10 0 55612  20700.000000  0       5786187.196      28734807.138       5024308.679
10 0 55612  21600.000000  0       5939077.155      29048437.043       2320223.695
10 0 55612  22500.000000  0       6069381.888      29111818.629       -412318.519
10 0 55612  23400.000000  0       6143481.619      28929647.169      -3139804.434
10 0 55612  24300.000000  0       6129232.512      28512889.426      -5828785.717
10 0 55612  25200.000000  0       5997024.037      27878432.352      -8446286.981
10 0 55612  26100.000000  0       5720758.211      27048551.209     -10960207.709
10 0 55612  27000.000000  0       5278720.359      26050213.572     -13339713.536
10 0 55612  27900.000000  0       4654314.366      24914240.762     -15555612.217
10 0 55612  28800.000000  0       3836639.593      23674352.606     -17580709.782
10 0 55612  29700.000000  0       2820891.475      22366125.034     -19390142.631
10 0 55612  30600.000000  0       1608573.262      21025892.709     -20961681.599
10 0 55612  31500.000000  0        207512.173      19689630.579     -22276004.348
10 0 55612  32400.000000  0      -1368320.770      18391848.903     -23316932.809
10 0 55612  33300.000000  0      -3099181.890      17164535.913     -24071632.799
10 0 55612  34200.000000  0      -4960105.789      16036180.831     -24530773.351
10 0 55612  35100.000000  0      -6921619.300      15030907.500     -24688643.781
10 0 55612  36000.000000  0      -8950596.657      14167745.547     -24543226.953
10 0 55612  36900.000000  0     -11011229.671      13460061.752     -24096227.719
10 0 55612  37800.000000  0     -13066083.121      12915169.406     -23353056.029
99